デ・ヴィコ-スイフト-ニート彗星

54P/de Vico-Swift-NEAT (1995)

English version
Home page
Updated on October 22, 2002

---------------------------------------------------------------------

・ プロフィール

・ 軌道要素

Epoch 1995 Mar. 24.0 TT = JDT 2449800.5  
T 1995 Apr. 2.84358 TT                                  Muraoka 
q   2.1445795            (2000.0)            P               Q
n   0.13477362     Peri.    1.84180     +0.99987666     -0.01560621
a   3.7676115      Node   359.04704     +0.01271004     +0.87002998
e   0.4307854      Incl.    6.08868     +0.00922608     +0.49275174
P   7.31
>From 19 observations 1894-1965, mean residual 1".41.  Nongravitational
   parameters A1 = +0.61 +/- 0.13, A2 = -0.0406 +/- 0.0065.

・ 星図

・ 1994年 5月 8日〜1996年 2月27日

・ 光度変化

        m1 = 10.0 + 5 logΔ + 15.0 log r

---------------------------------------------------------------------

軌道要素は村岡健治氏の計算によるものです。
星図は StellaNavigator Ver.2.0 for Windows (アストロアーツ 編著 / アスキー出版局刊) で作成したものです。
光度グラフはComet for Windowsで作成したものです。

---------------------------------------------------------------------

Copyright(C) Seiichi Yoshida (comet@aerith.net). All rights reserved.